Weather History for South Pass, WY

Change the Weather History Date:

Tuesday, November 12, 2013

  Actual Average (KLND) Record (KLND)
Temperature  
Mean Temperature 41 °F 33 °F  
Max Temperature 50 °F 45 °F 66 °F (1999)
Min Temperature 32 °F 22 °F -22 °F (1919)
Degree Days  
Heating Degree Days 24 32  
Month to date heating degree days 345  
Since 1 July heating degree days 1206  
Cooling Degree Days 0 0  
Month to date cooling degree days 0  
Year to date cooling degree days 472  
Moisture  
Dew Point 18 °F    
Average Humidity 43    
Maximum Humidity 87    
Minimum Humidity 15    
Precipitation  
Precipitation 0.00 in 0.03 in 0.45 in (1980)
Month to date precipitation 0.37  
Year to date precipitation 11.59  
Snow  
Snow 0.00 in 0.50 in - ()
Month to date snowfall 5.0  
Since 1 July snowfall 17.5  
Since 1 September snowfall 17.5  
Snow Depth -    
Sea Level Pressure  
Sea Level Pressure 30.46 in    
Wind  
Wind Speed 6 mph (WSW)    
Max Wind Speed 15 mph    
Max Gust Speed 20 mph    
Visibility 10 miles    
Events      
T = Trace of Precipitation, MM = Missing Value Source: NWS Daily Summary

Daily Weather History Graph

Daily Weather History Graph

Search for Another Location

Airport:

Trip Planner

Search our weather history database for the weather conditions in past years. The results will help you decide how hot, cold, wet, or windy it might be!

Date:

Astronomy

Nov. 12, 2013 Rise Set
Actual Time 7:02 AM MST 4:55 PM MST
Civil Twilight 6:32 AM MST 5:25 PM MST
Nautical Twilight 5:58 AM MST 5:59 PM MST
Astronomical Twilight 5:25 AM MST 6:32 PM MST
Moon 2:16 PM MST (11/12) 1:49 AM MST (11/12)
Length of Visible Light 10h 52m
Length of Day
9h 52m
Waxing Gibbous, 77% of the Moon is Illuminated
Nov 12
Waxing Gibbous
Nov 17
Full
Nov 25
Last Quarter
Dec 2
New
Dec 9
First Quarter

Hourly Weather History & Observations

Time (MST) Temp. Windchill Dew Point Humidity Pressure Visibility Wind Dir Wind Speed Gust Speed Precip Events Conditions
12:15 AM 32.0 °F 27.5 °F 26.6 °F 80% 30.49 in 10.0 mi North 4.6 mph - N/A   Clear
12:35 AM 32.0 °F 28.7 °F 26.6 °F 80% 30.49 in 10.0 mi North 3.5 mph - N/A   Clear
12:55 AM 32.0 °F - 28.4 °F 87% 30.49 in 10.0 mi Calm Calm - N/A   Clear
1:15 AM 32.0 °F - 28.4 °F 87% 30.51 in 10.0 mi Calm Calm - N/A   Clear
1:35 AM 32.0 °F - 26.6 °F 80% 30.51 in 10.0 mi Calm Calm - N/A   Clear
1:55 AM 32.0 °F 28.7 °F 26.6 °F 80% 30.50 in 10.0 mi SW 3.5 mph - N/A   Clear
2:15 AM 32.0 °F - 26.6 °F 80% 30.51 in 10.0 mi Calm Calm - N/A   Clear
2:35 AM 33.8 °F - 26.6 °F 75% 30.51 in 10.0 mi Calm Calm - N/A   Clear
2:55 AM 32.0 °F 26.4 °F 26.6 °F 80% 30.51 in 10.0 mi WSW 5.8 mph - N/A   Clear
3:15 AM 32.0 °F 24.2 °F 26.6 °F 80% 30.51 in 10.0 mi WSW 9.2 mph - N/A   Clear
3:35 AM 32.0 °F 24.2 °F 24.8 °F 75% 30.50 in 10.0 mi SW 9.2 mph - N/A   Clear
3:55 AM 32.0 °F 23.6 °F 24.8 °F 75% 30.50 in 10.0 mi SW 10.4 mph - N/A   Clear
4:15 AM 32.0 °F 24.2 °F 24.8 °F 75% 30.49 in 10.0 mi SW 9.2 mph - N/A   Clear
4:35 AM 32.0 °F 24.2 °F 24.8 °F 75% 30.49 in 10.0 mi SW 9.2 mph - N/A   Clear
4:55 AM 33.8 °F 25.8 °F 23.0 °F 65% 30.49 in 10.0 mi SW 10.4 mph - N/A   Clear
5:15 AM 33.8 °F 24.8 °F 23.0 °F 65% 30.49 in 10.0 mi WSW 12.7 mph - N/A   Clear
5:35 AM 32.0 °F 22.5 °F 23.0 °F 69% 30.49 in 10.0 mi WSW 12.7 mph - N/A   Clear
5:55 AM 33.8 °F 25.8 °F 23.0 °F 65% 30.49 in 10.0 mi SW 10.4 mph - N/A   Clear
6:15 AM 33.8 °F 25.3 °F 23.0 °F 65% 30.49 in 10.0 mi SW 11.5 mph - N/A   Clear
6:35 AM 32.0 °F 22.5 °F 23.0 °F 69% 30.48 in 10.0 mi SW 12.7 mph - N/A   Clear
6:55 AM 32.0 °F 23.0 °F 23.0 °F 69% 30.48 in 10.0 mi WSW 11.5 mph - N/A   Clear
7:15 AM 33.8 °F 25.8 °F 23.0 °F 65% 30.48 in 10.0 mi WSW 10.4 mph - N/A   Clear
7:35 AM 33.8 °F - 21.2 °F 60% 30.49 in 10.0 mi Calm Calm - N/A   Clear
7:55 AM 32.0 °F 28.7 °F 21.2 °F 64% 30.48 in 10.0 mi West 3.5 mph - N/A   Clear
8:15 AM 35.6 °F 32.8 °F 23.0 °F 60% 30.49 in 10.0 mi SSW 3.5 mph - N/A   Clear
8:35 AM 37.4 °F 33.8 °F 21.2 °F 52% 30.49 in 10.0 mi SW 4.6 mph - N/A   Clear
8:55 AM 41.0 °F 37.1 °F 17.6 °F 39% 30.49 in 10.0 mi WSW 5.8 mph - N/A   Clear
9:15 AM 44.6 °F 42.2 °F 12.2 °F 27% 30.49 in 10.0 mi WSW 4.6 mph - N/A   Clear
9:35 AM 46.4 °F 43.5 °F 8.6 °F 22% 30.49 in 10.0 mi WSW 5.8 mph - N/A   Clear
9:55 AM 48.2 °F - 3.2 °F 16% 30.49 in 10.0 mi WSW 6.9 mph - N/A   Clear
10:15 AM 50.0 °F - 3.2 °F 15% 30.49 in 10.0 mi WSW 9.2 mph - N/A   Clear
10:35 AM 50.0 °F - 5.0 °F 16% 30.49 in 10.0 mi WSW 10.4 mph - N/A   Clear
10:55 AM 48.2 °F - 10.4 °F 22% 30.49 in 10.0 mi WSW 12.7 mph - N/A   Clear
11:15 AM 48.2 °F - 14.0 °F 25% 30.48 in 10.0 mi WSW 11.5 mph 19.6 mph N/A   Clear
11:35 AM 48.2 °F - 17.6 °F 30% 30.48 in 10.0 mi WSW 12.7 mph - N/A   Clear
11:55 AM 48.2 °F - 15.8 °F 27% 30.47 in 10.0 mi WSW 13.8 mph 18.4 mph N/A   Clear
12:15 PM 50.0 °F - 17.6 °F 28% 30.47 in 10.0 mi WSW 15.0 mph 19.6 mph N/A   Clear
12:35 PM 50.0 °F - 17.6 °F 28% 30.46 in 10.0 mi West 12.7 mph - N/A   Clear
12:55 PM 50.0 °F - 17.6 °F 28% 30.46 in 10.0 mi West 12.7 mph - N/A   Clear
1:15 PM 50.0 °F - 17.6 °F 28% 30.46 in 10.0 mi WSW 13.8 mph - N/A   Clear
1:35 PM 50.0 °F - 15.8 °F 26% 30.46 in 10.0 mi WSW 13.8 mph - N/A   Clear
1:55 PM 50.0 °F - 17.6 °F 28% 30.45 in 10.0 mi WSW 13.8 mph - N/A   Clear
2:15 PM 50.0 °F - 17.6 °F 28% 30.44 in 10.0 mi WSW 13.8 mph - N/A   Clear
2:35 PM 50.0 °F - 17.6 °F 28% 30.44 in 10.0 mi WSW 12.7 mph - N/A   Clear
2:55 PM 50.0 °F - 17.6 °F 28% 30.44 in 10.0 mi WSW 12.7 mph - N/A   Clear
3:15 PM 50.0 °F - 17.6 °F 28% 30.44 in 10.0 mi WSW 10.4 mph - N/A   Clear
3:35 PM 50.0 °F - 17.6 °F 28% 30.44 in 10.0 mi WSW 8.1 mph - N/A   Clear
3:55 PM 50.0 °F - 17.6 °F 28% 30.44 in 10.0 mi West 10.4 mph - N/A   Clear
4:15 PM 48.2 °F - 17.6 °F 30% 30.44 in 10.0 mi West 9.2 mph - N/A   Clear
4:35 PM 46.4 °F 42.4 °F 17.6 °F 32% 30.44 in 10.0 mi West 8.1 mph - N/A   Clear
4:55 PM 44.6 °F 40.2 °F 17.6 °F 34% 30.44 in 10.0 mi WSW 8.1 mph - N/A   Clear
5:15 PM 44.6 °F 42.2 °F 17.6 °F 34% 30.43 in 10.0 mi West 4.6 mph - N/A   Clear
5:35 PM 46.4 °F 44.3 °F 14.0 °F 27% 30.43 in 10.0 mi WSW 4.6 mph - N/A   Clear
5:55 PM 46.4 °F 45.2 °F 14.0 °F 27% 30.43 in 10.0 mi West 3.5 mph - N/A   Clear
6:15 PM 46.4 °F 45.2 °F 12.2 °F 25% 30.44 in 10.0 mi West 3.5 mph - N/A   Clear
6:35 PM 46.4 °F 45.2 °F 12.2 °F 25% 30.44 in 10.0 mi West 3.5 mph - N/A   Clear
6:55 PM 46.4 °F - 10.4 °F 23% 30.43 in 10.0 mi Calm Calm - N/A   Clear
7:15 PM 46.4 °F - 8.6 °F 22% 30.43 in 10.0 mi Calm Calm - N/A   Clear
7:35 PM 44.6 °F 43.1 °F 12.2 °F 27% 30.43 in 10.0 mi WSW 3.5 mph - N/A   Clear
7:55 PM 46.4 °F - 10.4 °F 23% 30.43 in 10.0 mi Calm Calm - N/A   Clear
8:15 PM 48.2 °F - 10.4 °F 22% 30.43 in 10.0 mi WSW 4.6 mph - N/A   Clear
8:35 PM 50.0 °F - 10.4 °F 20% 30.43 in 10.0 mi WSW 3.5 mph - N/A   Clear
8:55 PM 46.4 °F 44.3 °F 10.4 °F 23% 30.43 in 10.0 mi West 4.6 mph - N/A   Clear
9:15 PM 48.2 °F - 10.4 °F 22% 30.42 in 10.0 mi West 4.6 mph - N/A   Clear
9:35 PM 46.4 °F 42.4 °F 14.0 °F 27% 30.42 in 10.0 mi WSW 8.1 mph - N/A   Clear
9:55 PM 44.6 °F 41.4 °F 15.8 °F 31% 30.41 in 10.0 mi West 5.8 mph - N/A   Clear
10:15 PM 44.6 °F 40.7 °F 17.6 °F 34% 30.41 in 10.0 mi West 6.9 mph - N/A   Clear
10:35 PM 42.8 °F 37.0 °F 17.6 °F 36% 30.40 in 10.0 mi West 10.4 mph - N/A   Clear
10:55 PM 46.4 °F 43.5 °F 17.6 °F 32% 30.40 in 10.0 mi West 5.8 mph - N/A   Clear
11:15 PM 44.6 °F 43.1 °F 17.6 °F 34% 30.40 in 10.0 mi SW 3.5 mph - N/A   Clear
11:35 PM 44.6 °F 43.1 °F 17.6 °F 34% 30.40 in 10.0 mi SW 3.5 mph - N/A   Clear
11:55 PM 42.8 °F 40.1 °F 17.6 °F 36% 30.39 in 10.0 mi WSW 4.6 mph - N/A   Clear